This is the latest recevied weather packets stored in our database for station/object KG0HG. If no packets are shown the sender has not sent any weather packets the latest 10 day(s).
| Time | Temp. | Humidity | Pressure | Rain* | Wind** | Luminosity | Snow |
|---|---|---|---|---|---|---|---|
| 1777794903 | 7.22° C | 74% | 1016.7 hPa | 0 mm | - | 0 W/m² | - |
| 1777794600 | 7.22° C | 74% | 1016.6 hPa | 0 mm | - | 0 W/m² | - |
| 1777794294 | 7.22° C | 74% | 1016.6 hPa | 0 mm | - | 0 W/m² | - |
| 1777793990 | 7.22° C | 75% | 1016.6 hPa | 0 mm | - | 0 W/m² | - |
| 1777793687 | 6.67° C | 76% | 1016.7 hPa | 0 mm | - | 0 W/m² | - |
| 1777793385 | 7.22° C | 76% | 1016.7 hPa | 0 mm | - | 0 W/m² | - |
| 1777793083 | 7.22° C | 75% | 1016.9 hPa | 0 mm | - | 0 W/m² | - |
| 1777792780 | 7.22° C | 76% | 1016.8 hPa | 0 mm | - | 0 W/m² | - |
| 1777792477 | 7.22° C | 76% | 1016.9 hPa | 0 mm | - | 0 W/m² | - |
| 1777792173 | 7.22° C | 77% | 1016.9 hPa | 0 mm | - | 0 W/m² | - |
| 1777791870 | 7.22° C | 77% | 1017 hPa | 0 mm | - | 0 W/m² | - |
| 1777791568 | 7.22° C | 78% | 1017 hPa | 0 mm | - | 0 W/m² | - |
| 1777791266 | 6.67° C | 79% | 1017 hPa | 0 mm | - | 0 W/m² | - |
| 1777790963 | 6.67° C | 80% | 1017.3 hPa | 0 mm | - | 0 W/m² | - |
| 1777790661 | 6.67° C | 81% | 1017.3 hPa | 0 mm | - | 0 W/m² | - |
| 1777790357 | 6.67° C | 82% | 1017.2 hPa | 0 mm | - | 0 W/m² | - |
| 1777790055 | 6.67° C | 83% | 1017.5 hPa | 0 mm | - | 0 W/m² | - |
| 1777789753 | 6.67° C | 83% | 1017.6 hPa | 0 mm | - | 0 W/m² | - |
| 1777789451 | 6.67° C | 82% | 1017.3 hPa | 0 mm | - | 0 W/m² | - |
| 1777789149 | 7.22° C | 79% | 1017.3 hPa | 0 mm | - | 0 W/m² | - |
| 1777788846 | 7.22° C | 77% | 1017.3 hPa | 0 mm | - | 0 W/m² | - |
| 1777788541 | 7.22° C | 78% | 1017.2 hPa | 0 mm | - | 0 W/m² | - |
| 1777788236 | 6.67° C | 79% | 1017.4 hPa | 0 mm | - | 0 W/m² | - |
| 1777787932 | 6.67° C | 81% | 1017.4 hPa | 0 mm | - | 0 W/m² | - |
| 1777787627 | 6.67° C | 82% | 1017.5 hPa | 0 mm | - | 0 W/m² | - |
* Rain latest hour (hover to see other rain measurements)
** Current wind speed in m/s (hover to see current wind gust speed)